Location: Hyderabad
(17.3833°N, 78.4667°E)
Time: 17:43:12
(UTC+05:30)

H-2A R/B - Visible Passes

Search period start: 15 December 2017 00:00
Search period end: 25 December 2017 00:00
Orbit: 254 x 33061 km, 28.5° (Epoch: 14 December)

Date Brightness Start Highest point End Pass type
(mag) Time Alt. Az. Time Alt. Az. Time Alt. Az.
15 Dec 7.3 23:50:27 10° W 02:17:13 73° NW 08:44:05 10° S visible
16 Dec 5.1 18:53:22 10° SW 19:01:58 66° SE 03:41:52 10° ESE visible
18 Dec 7.4 00:12:47 10° WNW 02:29:03 67° WNW 09:03:37 10° S visible
18 Dec 5.3 19:13:30 10° SW 19:23:12 77° SE 04:05:16 10° ESE visible
20 Dec 7.3 00:35:20 10° WNW 02:45:18 61° WNW 09:22:29 10° S visible
20 Dec 5.6 19:33:37 10° WSW 19:44:50 87° SSE 04:27:44 10° ESE visible
22 Dec 7.2 00:58:14 10° WNW 03:02:55 55° WNW 09:40:11 10° SSW visible
22 Dec 5.9 19:53:43 10° WSW 20:07:01 86° NNW 04:49:27 10° SE visible
24 Dec 7.1 01:21:33 10° WNW 03:24:36 49° WNW 09:54:16 10° SW visible
